Location: Newark
(13.3167°N, 169.1500°W)
Time: 19:34:13
(UTC+00:00)

LightSail 2 - Visible Passes

Search period start: 23 September 2019 00:00
Search period end: 03 October 2019 00:00
Orbit: 701 x 730 km, 24.0° (Epoch: 23 September)

Date Brightness Start Highest point End Pass type
(mag) Time Alt. Az. Time Alt. Az. Time Alt. Az.
23 Sep 7.8 14:27:45 14° NE 14:27:45 14° NE 14:28:34 10° NE visible
23 Sep 6.6 16:06:46 15° NW 16:09:50 25° N 16:14:00 10° NE visible
24 Sep 6.6 15:13:05 26° N 15:13:05 26° N 15:16:41 10° NE visible
25 Sep 8.1 14:19:23 10° NE 14:19:23 10° NE 14:19:27 10° NE visible
25 Sep 6.8 15:58:24 15° NW 16:01:11 24° N 16:05:15 10° NE visible
26 Sep 6.9 15:04:42 22° NNE 15:04:42 22° NNE 15:07:47 10° NE visible
27 Sep 6.7 15:50:01 18° NW 15:52:28 25° N 15:56:40 10° ENE visible
28 Sep 7.1 14:56:20 21° NNE 14:56:20 21° NNE 14:59:05 10° ENE visible
28 Sep 6.2 16:36:25 10° NW 16:41:07 37° NNE 16:45:49 10° E visible
29 Sep 6.4 15:41:40 23° NNW 15:43:40 31° N 15:48:10 10° ENE visible
30 Sep 7.2 14:48:01 22° NE 14:48:01 22° NE 14:50:30 10° ENE visible
30 Sep 5.6 16:27:10 10° WNW 16:32:09 55° NNE 16:37:07 10° E visible
01 Oct 7.3 06:42:17 10° S 06:43:46 14° S 06:43:46 14° S visible
01 Oct 5.9 15:33:26 35° NNW 15:34:45 43° NNE 15:39:34 10° E visible
02 Oct 7.4 05:47:21 10° SSE 05:47:51 10° SSE 05:48:22 10° SSE visible
02 Oct 7.7 07:28:33 10° SW 07:29:17 14° SW 07:29:17 14° SW visible
02 Oct 7.3 14:39:49 22° ENE 14:39:49 22° ENE 14:41:56 10° E visible
02 Oct 5.1 16:18:51 15° WNW 16:23:03 90° NNE 16:28:09 10° ESE visible
